User: anonymous
Location: Muenchen
(48.1800°N, 11.5800°E)
Time: 05:33:57
(UTC+02:00)
Language:

Iridium 37 - Orbit

View from above orbital plane
View from above orbital plane
View from above satellite
View from above satellite

Ground track
Ground track

The orbit data is extracted from the following two-line orbital elements,

1 24968U 97056D   14234.39625448  .00000002  00000-0 -62612-5 0  9244
2 24968 086.3971 029.2950 0002121 110.1894 249.9530 14.34217659884938
Epoch (UTC): 22 August 2014 09:30:36
Eccentricity: 0.0002121
inclination: 86.3971°
perigee height: 776 km
apogee height: 779 km
right ascension of ascending node: 29.2950°
argument of perigee: 110.1894°
revolutions per day: 14.34217659
mean anomaly at epoch: 249.9530°
orbit number at epoch: 88493

The dashed part of the orbit path shows where the satellite is in the earth's shadow,  

DLR